CZ-6A DEB, 54394

Orbit data source: Space-Track

CZ-6A DEB, 54394 is space debris in SSO originally from a launch on Fri, 11 Nov 2022 UTC launched from the Taiyaun Space Center, China (TSC). Debris objects in space refer to the collection of defunct objects orbiting the Earth. Examples of debris include non-operational satellites, rocket bodies, and fragments generated from explosions, collisions, or faulty payload assembly.

Loading next visibility...
Identifier
54394, 2022-151DS
Orbit
SSO
Country
Flag of CNCN / PRC
Related business
Manufacturer
SAST
Mission
Spacecraft
Bus & Motor
Unknown
Mass
Unknown
Launch date (UTC)
2022-11-11 (4 years ago)
Launch vehicle
Unknown
Launch site
Taiyaun Space Center, China (TSC)
Object type
Payload
Rocket body
Debris
Shape & HBR
Unknown shape, 1.2 m
Radar Cross Section
Large (>1 m²)

Expand to show TLE details & history
Last TLE update: 1 day ago

TLE from 1 day ago
0 CZ-6A DEB
1 54394U 22151DS  26235.36314991  .00001149  00000-0  33668-3 0  9994
2 54394  98.5643 267.2210 0101328 145.8245 214.9523 14.42871116198285
Epoch: 2026-08-23T08:42Z
TLE epoch observation values (Epoch: 2026-08-23T08:42:56.152Z)
Latitude
0.00005°
Longitude
164.82674°
Altitude
811.421 km
Speed
7.416 km/s
True Right ascension
17h 48m 53s
True Declination
0° 00' 00"
Sunlit
Object was in daylight at epoch
Visualization orbit readout
Latitude
Unknown
Longitude
Unknown
Altitude
Unknown
Speed
Unknown
Apparent Right ascension
Unknown
Apparent Declination
Unknown
Sunlit
N/A
Visualization observer readout
Local Sidereal Time
02:51:31
Azimuth
Unknown
Elevation
Unknown
Doppler factor
Unknown
Orbital elements
Apogee altitude
818.338 km
Perigee altitude
673.96 km
Semi-major axis
7,124.286 km
Eccentricity
0.01013
Inclination
98.5643°
RAAN
267.221°
Arg. of periapsis
145.8245°
True anomaly
214.29395°
Mean anomaly
214.9523°
Eccentric anomaly
214.62244°
Mean motion
3.60937 °/min
Orbital period
99.74 mins
BSTAR
0.00033668
Loading maneuver chart data...
Computing Atmospheric mass density...
Loading historical data...
Loading historical data...
Loading historical data...
Loading historical data...
Loading historical data...
Loading historical data...
Loading historical data...

Documentation

Showing up to 5 results
|